SL-8 R/B (21876 NORAD) Tracking and Keplerian Element Data

This shows tracking and keplerian element data for the satellite.

Feedback or suggestion? Click here.




ElementValue
Catalog21876
NameSL-8 R/B
Epoch Orbit34283
Epoch Day322.89576016
Epoch Year2018
RAAN90.9488
Inclination82.9263
Eccentricity0.0035205
Argument of Perigee25.441
Mean Anonmoly92.0829
Mean Motion13.756275
Decay Rate1E-07
L11 21876U 92008B 18322.89576016 .00000010 00000-0 -58196-5 0 9997
L22 21876 82.9263 90.9488 0035205 25.4410 92.0829 13.75627500342831

Live tracking and technical data element details for SL-8 R/B (NORAD 21876). SL-8 R/B can be tracked NOW for your location showing map with azimuth and elevation plus other details from your city location.

Track the satellite on the map from your city or location and see movement details for azimuth, elevation, latitude, longitude, range, height, and movement on the map or in text.







IsCatalogInMostPopularTable: catalog: 21876, numindb: 35
Update: records affected: 1



GetName: 21876 SL-8 R/B

Hit Count: updated at: Tue, 20 Nov 2018 00:10:39 GMT